ESAIL (46273 NORAD) Tracking and Keplerian Element Data

This shows tracking and keplerian element data for the satellite.

Feedback or suggestion? Click here.




ElementValue
Catalog46273
NameESAIL
Epoch Orbit1269
Epoch Day330.94879165
Epoch Year2020
RAAN42.5308
Inclination97.4601
Eccentricity0.0005104
Argument of Perigee315.4517
Mean Anonmoly44.6323
Mean Motion15.15277531
Decay Rate1.268E-05
L11 46273U 20061B 20330.94879165 .00001268 00000-0 70858-4 0 9997
L22 46273 97.4601 42.5308 0005104 315.4517 44.6323 15.15277531 12696

Live tracking and technical data element details for ESAIL (NORAD 46273). ESAIL can be tracked NOW for your location showing map with azimuth and elevation plus other details from your city location.

Track the satellite on the map from your city or location and see movement details for azimuth, elevation, latitude, longitude, range, height, and movement on the map or in text.







IsCatalogInMostPopularTable: catalog: 46273, numindb: 15
Update: records affected: 1



GetName: 46273 ESAIL

Hit Count: updated at: Fri, 27 Nov 2020 00:16:24 GMT